Weather History for Clermont County, Batavia, OH

Change the Weather History Date:

Friday, December 13, 2013

  Actual Average (KLUK) Record (KLUK)
Temperature  
Mean Temperature 32 °F -  
Max Temperature 41 °F 44 °F 65 °F (1975)
Min Temperature 23 °F 29 °F -1 °F (1962)
Degree Days  
Heating Degree Days 33    
Moisture  
Dew Point 18 °F    
Average Humidity 57    
Maximum Humidity 87    
Minimum Humidity 39    
Precipitation  
Precipitation 0.00 in - - ()
Sea Level Pressure  
Sea Level Pressure 30.24 in    
Wind  
Wind Speed 4 mph (SW)    
Max Wind Speed 9 mph    
Max Gust Speed -    
Visibility 10 miles    
Events Rain , Snow    
Averages and records for this station are not official NWS values.
T = Trace of Precipitation, MM = Missing Value Source: NWS Daily Summary

Daily Weather History Graph

Daily Weather History Graph

Search for Another Location

Airport:

Trip Planner

Search our weather history database for the weather conditions in past years. The results will help you decide how hot, cold, wet, or windy it might be!

Date:

Astronomy

Dec. 13, 2013 Rise Set
Actual Time 7:47 AM EST 5:14 PM EST
Civil Twilight 7:17 AM EST 5:44 PM EST
Nautical Twilight 6:44 AM EST 6:18 PM EST
Astronomical Twilight 6:11 AM EST 6:50 PM EST
Moon 2:56 PM EST (12/13) 4:10 AM EST (12/13)
Length of Visible Light 10h 27m
Length of Day
9h 27m
Waxing Gibbous, 88% of the Moon is Illuminated
Dec 13
Waxing Gibbous
Dec 17
Full
Dec 25
Last Quarter
Jan 1
New
Jan 7
First Quarter

Hourly Weather History & Observations

Time (EST) Temp. Windchill Dew Point Humidity Pressure Visibility Wind Dir Wind Speed Gust Speed Precip Events Conditions
12:14 AM 23.0 °F 17.0 °F 12.2 °F 63% 30.34 in 10.0 mi SW 4.6 mph - N/A   Clear
12:34 AM 23.0 °F - 12.2 °F 63% 30.34 in 10.0 mi Calm Calm - N/A   Clear
12:54 AM 23.0 °F - 12.2 °F 63% 30.33 in 10.0 mi Calm Calm - N/A   Clear
1:14 AM 23.0 °F - 12.2 °F 63% 30.32 in 10.0 mi Calm Calm - N/A   Clear
1:34 AM 23.0 °F 18.4 °F 12.2 °F 63% 30.32 in 10.0 mi SSW 3.5 mph - N/A   Clear
1:54 AM 23.0 °F - 12.2 °F 63% 30.32 in 10.0 mi Calm Calm - N/A   Clear
2:14 AM 23.0 °F - 12.2 °F 63% 30.32 in 10.0 mi Calm Calm - N/A   Clear
2:34 AM 23.0 °F - 12.2 °F 63% 30.31 in 10.0 mi Calm Calm - N/A   Clear
2:54 AM 23.0 °F 18.4 °F 12.2 °F 63% 30.31 in 10.0 mi SSW 3.5 mph - N/A   Clear
3:14 AM 23.0 °F 18.4 °F 12.2 °F 63% 30.31 in 10.0 mi SW 3.5 mph - N/A   Clear
3:34 AM 23.0 °F 17.0 °F 12.2 °F 63% 30.31 in 10.0 mi SSW 4.6 mph - N/A   Clear
3:54 AM 23.0 °F 15.8 °F 14.0 °F 68% 30.29 in 10.0 mi SSW 5.8 mph - N/A   Clear
4:14 AM 23.0 °F 17.0 °F 14.0 °F 68% 30.29 in 10.0 mi SW 4.6 mph - N/A   Clear
4:34 AM 23.0 °F 15.8 °F 14.0 °F 68% 30.28 in 10.0 mi SW 5.8 mph - N/A   Clear
4:54 AM 23.0 °F 18.4 °F 14.0 °F 68% 30.28 in 10.0 mi SSW 3.5 mph - N/A   Clear
5:14 AM 23.0 °F 17.0 °F 14.0 °F 68% 30.28 in 10.0 mi SSW 4.6 mph - N/A   Clear
5:34 AM 23.0 °F 14.7 °F 14.0 °F 68% 30.28 in 10.0 mi SSW 6.9 mph - N/A   Clear
5:54 AM 23.0 °F 15.8 °F 14.0 °F 68% 30.27 in 10.0 mi SSW 5.8 mph - N/A   Clear
6:14 AM 23.0 °F 17.0 °F 14.0 °F 68% 30.27 in 10.0 mi SSW 4.6 mph - N/A   Clear
6:34 AM 23.0 °F 15.8 °F 14.0 °F 68% 30.27 in 10.0 mi SSW 5.8 mph - N/A   Clear
6:54 AM 24.8 °F 17.9 °F 14.0 °F 64% 30.27 in 10.0 mi SW 5.8 mph - N/A   Clear
7:14 AM 24.8 °F 19.1 °F 14.0 °F 64% 30.27 in 10.0 mi SW 4.6 mph - N/A   Clear
7:34 AM 24.8 °F 19.1 °F 14.0 °F 64% 30.27 in 10.0 mi SW 4.6 mph - N/A   Clear
7:54 AM 23.0 °F 17.0 °F 14.0 °F 68% 30.27 in 10.0 mi SW 4.6 mph - N/A   Clear
8:14 AM 24.8 °F 20.5 °F 14.0 °F 64% 30.27 in 10.0 mi SW 3.5 mph - N/A   Clear
8:34 AM 24.8 °F - 14.0 °F 64% 30.27 in 10.0 mi Calm Calm - N/A   Clear
8:54 AM 26.6 °F 22.6 °F 14.0 °F 59% 30.27 in 10.0 mi SSW 3.5 mph - N/A   Clear
9:14 AM 28.4 °F 21.2 °F 14.0 °F 55% 30.28 in 10.0 mi SW 6.9 mph - N/A   Clear
9:34 AM 28.4 °F 22.2 °F 14.0 °F 55% 30.28 in 10.0 mi SW 5.8 mph - N/A   Clear
9:54 AM 28.4 °F 21.2 °F 14.0 °F 55% 30.28 in 10.0 mi SW 6.9 mph - N/A   Clear
10:14 AM 30.2 °F 22.6 °F 15.8 °F 55% 30.28 in 10.0 mi SW 8.1 mph - N/A   Clear
10:34 AM 30.2 °F 23.4 °F 17.6 °F 60% 30.28 in 10.0 mi SW 6.9 mph - N/A   Clear
10:55 AM 32.0 °F 25.6 °F 17.6 °F 55% 30.28 in 10.0 mi WSW 6.9 mph - N/A   Clear
11:14 AM 32.0 °F 24.2 °F 17.6 °F 55% 30.28 in 10.0 mi WSW 9.2 mph - N/A   Clear
11:34 AM 32.0 °F 24.8 °F 19.4 °F 60% 30.27 in 10.0 mi WSW 8.1 mph - N/A   Clear
11:55 AM 33.8 °F 27.7 °F 19.4 °F 56% 30.25 in 10.0 mi WSW 6.9 mph - N/A   Clear
12:14 PM 35.6 °F 30.7 °F 19.4 °F 52% 30.24 in 10.0 mi SW 5.8 mph - N/A   Clear
12:34 PM 35.6 °F 28.6 °F 19.4 °F 52% 30.23 in 10.0 mi SW 9.2 mph - N/A   Clear
12:55 PM 37.4 °F 32.1 °F 19.4 °F 48% 30.22 in 10.0 mi SW 6.9 mph - N/A   Clear
1:14 PM 37.4 °F 32.1 °F 19.4 °F 48% 30.21 in 10.0 mi SW 6.9 mph - N/A   Clear
1:34 PM 37.4 °F 31.4 °F 19.4 °F 48% 30.21 in 10.0 mi SSW 8.1 mph - N/A   Clear
1:55 PM 39.2 °F 33.6 °F 19.4 °F 45% 30.20 in 10.0 mi SW 8.1 mph - N/A   Clear
2:14 PM 39.2 °F 33.6 °F 19.4 °F 45% 30.20 in 10.0 mi SW 8.1 mph - N/A   Clear
2:34 PM 41.0 °F 35.8 °F 19.4 °F 42% 30.20 in 10.0 mi SW 8.1 mph - N/A   Clear
2:55 PM 41.0 °F 35.8 °F 19.4 °F 42% 30.20 in 10.0 mi WSW 8.1 mph - N/A   Clear
3:14 PM 41.0 °F 36.4 °F 17.6 °F 39% 30.19 in 10.0 mi SW 6.9 mph - N/A   Clear
3:34 PM 41.0 °F 38.0 °F 17.6 °F 39% 30.18 in 10.0 mi SSW 4.6 mph - N/A   Clear
3:55 PM 41.0 °F 36.4 °F 17.6 °F 39% 30.18 in 10.0 mi SSW 6.9 mph - N/A   Clear
4:14 PM 41.0 °F 39.0 °F 17.6 °F 39% 30.18 in 10.0 mi SSW 3.5 mph - N/A   Clear
4:34 PM 41.0 °F 38.0 °F 17.6 °F 39% 30.17 in 10.0 mi SSW 4.6 mph - N/A   Clear
4:55 PM 41.0 °F 38.0 °F 17.6 °F 39% 30.17 in 10.0 mi South 4.6 mph - N/A   Clear
5:14 PM 39.2 °F 37.0 °F 19.4 °F 45% 30.17 in 10.0 mi SSW 3.5 mph - N/A   Clear
5:34 PM 39.2 °F 37.0 °F 19.4 °F 45% 30.17 in 10.0 mi SSW 3.5 mph - N/A   Clear
5:55 PM 37.4 °F 34.9 °F 19.4 °F 48% 30.17 in 10.0 mi South 3.5 mph - N/A   Clear
6:14 PM 37.4 °F - 19.4 °F 48% 30.18 in 10.0 mi Calm Calm - N/A   Clear
6:34 PM 37.4 °F 33.8 °F 19.4 °F 48% 30.18 in 10.0 mi SSW 4.6 mph - N/A   Clear
6:55 PM 37.4 °F 32.8 °F 19.4 °F 48% 30.20 in 10.0 mi SSW 5.8 mph - N/A   Clear
7:14 PM 39.2 °F 35.0 °F 19.4 °F 45% 30.20 in 10.0 mi SSW 5.8 mph - N/A   Scattered Clouds
7:34 PM 39.2 °F 35.9 °F 19.4 °F 45% 30.20 in 10.0 mi SSW 4.6 mph - N/A   Mostly Cloudy
7:54 PM 39.2 °F 35.9 °F 19.4 °F 45% 30.20 in 10.0 mi SSW 4.6 mph - N/A   Mostly Cloudy
8:14 PM 39.2 °F 35.9 °F 19.4 °F 45% 30.19 in 10.0 mi SSW 4.6 mph - N/A   Mostly Cloudy
8:34 PM 39.2 °F 35.9 °F 21.2 °F 49% 30.20 in 10.0 mi SW 4.6 mph - N/A   Overcast
8:54 PM 39.2 °F 35.9 °F 21.2 °F 49% 30.20 in 10.0 mi SW 4.6 mph - N/A   Overcast
9:14 PM 39.2 °F 35.9 °F 21.2 °F 49% 30.20 in 10.0 mi SW 4.6 mph - N/A   Overcast
9:34 PM 39.2 °F 37.0 °F 21.2 °F 49% 30.19 in 10.0 mi SW 3.5 mph - N/A   Overcast
9:54 PM 39.2 °F - 21.2 °F 49% 30.18 in 10.0 mi Calm Calm - N/A Rain Light Rain
10:14 PM 39.2 °F 35.0 °F 23.0 °F 52% 30.16 in 10.0 mi SSE 5.8 mph - N/A Rain Light Rain
10:34 PM 37.4 °F 34.9 °F 30.2 °F 75% 30.14 in 7.0 mi South 3.5 mph - N/A Snow Light Snow
10:54 PM 37.4 °F - 30.2 °F 75% 30.15 in 10.0 mi Calm Calm - N/A   Mostly Cloudy
11:14 PM 37.4 °F - 32.0 °F 81% 30.15 in 10.0 mi Calm Calm - N/A   Overcast
11:34 PM 35.6 °F - 32.0 °F 87% 30.16 in 10.0 mi Calm Calm - N/A   Overcast
11:54 PM 35.6 °F - 32.0 °F 87% 30.15 in 10.0 mi Calm Calm - N/A   Overcast